| Date | Time | Temp. (oF) | Dew Point (oF) | Rel. Hum. (%) | Press. (in.) | Wind Dir. | Wind Speed (mph) | Hourly Rainfall (in.) |
|
|---|---|---|---|---|---|---|---|---|---|
| 1 | 03/11 | 00:00 | 29 | 18 | 64 | 30.54 | ESE | 0 | 0.00 |
| 2 | 03/10 | 23:00 | 30 | 16 | 57 | 30.53 | S | 0 | 0.00 |
| 3 | 03/10 | 22:00 | 30 | 19 | 65 | 30.53 | S | 1 | 0.00 |
| 4 | 03/10 | 21:00 | 32 | 17 | 54 | 30.52 | S | 1 | 0.00 |
| 5 | 03/10 | 20:00 | 34 | 13 | 42 | 30.52 | SSE | 0 | 0.00 |
| 6 | 03/10 | 19:00 | 37 | 14 | 40 | 30.51 | SSE | 2 | 0.00 |
| 7 | 03/10 | 18:00 | 39 | 13 | 35 | 30.51 | S | 5 | 0.00 |
| 8 | 03/10 | 17:00 | 41 | 11 | 30 | 30.48 | N | 4 | 0.00 |
| 9 | 03/10 | 16:00 | 41 | 14 | 34 | 30.48 | WSW | 2 | 0.00 |
| 10 | 03/10 | 15:00 | 41 | 15 | 36 | 30.48 | NE | 2 | 0.00 |
| 11 | 03/10 | 14:00 | 39 | 16 | 40 | 30.50 | NNE | 8 | 0.00 |
| 12 | 03/10 | 13:00 | 38 | 13 | 37 | 30.54 | NE | 5 | 0.00 |
| 13 | 03/10 | 12:00 | 37 | 18 | 46 | 30.56 | WSW | 11 | 0.00 |
| 14 | 03/10 | 11:00 | 34 | 12 | 41 | 30.57 | N | 10 | 0.00 |
| 15 | 03/10 | 10:00 | 32 | 10 | 40 | 30.58 | N | 8 | 0.00 |
| 16 | 03/10 | 09:00 | 31 | 12 | 45 | 30.56 | N | 13 | 0.00 |
| 17 | 03/10 | 08:00 | 29 | 12 | 50 | 30.54 | ESE | 14 | 0.00 |
| 18 | 03/10 | 07:00 | 27 | 13 | 57 | 30.51 | N | 4 | 0.00 |
| 19 | 03/10 | 06:00 | 28 | 14 | 56 | 30.47 | WSW | 6 | 0.00 |
| 20 | 03/10 | 05:00 | 29 | 14 | 54 | 30.44 | NNE | 8 | 0.00 |
| 21 | 03/10 | 04:00 | 29 | 13 | 53 | 30.41 | N | 7 | 0.00 |
| 22 | 03/10 | 03:00 | 30 | 14 | 52 | 30.39 | SW | 5 | 0.00 |
| 23 | 03/10 | 02:00 | 32 | 14 | 49 | 30.40 | WSW | 6 | 0.00 |
| 24 | 03/10 | 01:00 | 33 | 17 | 52 | 30.37 | W | 7 | 0.00 |